CW4778 Auckland NZ current weather conditions

sailwx.info

Wind from 076

Air temperature 20.0° C
Dewpoint 19.5° C

Last reported at 2017-Feb-19 15:48 UTC.
Time now 2017-Feb-19 17:01 UTC

Location: S 36°52' E 174°44'.
View on Google Maps.

See reports from other nearby stations

  
Tides and Currents Weather Stations Pressure Air Temp Water Temp Dewpoint Dewpoint Depression Visibility Wind Speed Wind Dir Waves Ship Positions
date/time (UTC)wind fromknots sea level pressurealtimeterstation pressurevisibilityair tempwater tempwave heightnotes
2017-Feb-19 15:48 076 20.0
2017-Feb-19 15:38 073 1 gusting 6 20.0
2017-Feb-19 15:28 075 1 gusting 5 19.4
2017-Feb-19 15:18 084 0 gusting 5 19.4
2017-Feb-19 14:58 092 1 gusting 2 19.4
2017-Feb-19 14:48 099 0 gusting 2 19.4
2017-Feb-19 14:38 094 0 gusting 2 19.4
2017-Feb-19 14:28 106 1 gusting 6 19.4
2017-Feb-19 14:18 102 2 gusting 6 19.4
2017-Feb-19 14:08 152 19.4
2017-Feb-19 13:58 152 19.4
2017-Feb-19 13:48 152 19.4
2017-Feb-19 13:28 153 0 gusting 4 19.4
2017-Feb-19 13:18 166 19.4
2017-Feb-19 13:08 183 0 gusting 1 19.4
2017-Feb-19 12:38 159 0 gusting 4 20.0
2017-Feb-19 12:18 098 0 gusting 0 20.0
2017-Feb-19 12:08 092 20.0
2017-Feb-19 11:58 073 20.6
2017-Feb-19 11:48 066 20.6
2017-Feb-19 11:28 069 20.0
2017-Feb-19 11:08 064 20.0
2017-Feb-19 10:58 058 20.0
2017-Feb-19 10:38 068 0 gusting 2 20.0
2017-Feb-19 10:28 079 20.0
2017-Feb-19 10:18 055 0 gusting 5 20.6
2017-Feb-19 09:58 075 0 gusting 7 20.6
2017-Feb-19 09:48 057 0 gusting 6 20.6
2017-Feb-19 09:38 069 2 gusting 6 20.6
2017-Feb-19 09:18 062 1 gusting 6 20.6
2017-Feb-19 09:08 066 20.6
2017-Feb-19 08:58 089 20.0
2017-Feb-19 08:48 048 20.6
2017-Feb-19 08:28 046 0 gusting 4 20.6
2017-Feb-19 07:58 035 2 gusting 6 21.1
2017-Feb-19 07:48 046 21.1
2017-Feb-19 07:28 068 0 gusting 6 21.1
2017-Feb-19 07:18 060 1 gusting 6 21.7
2017-Feb-19 06:58 076 0 gusting 5 21.7
2017-Feb-19 06:48 039 1 gusting 6 22.2
2017-Feb-19 06:38 094 2 gusting 11 22.2
2017-Feb-19 06:28 069 1 gusting 10 22.8
2017-Feb-19 06:18 056 2 gusting 7 22.8
2017-Feb-19 06:08 045 2 gusting 7 22.8
2017-Feb-19 05:48 019 4 gusting 11 23.3
2017-Feb-19 05:18 047 2 gusting 10 23.9
2017-Feb-19 05:08 037 4 gusting 10 23.9
2017-Feb-19 04:18 358 3 gusting 10 23.9
2017-Feb-19 04:08 047 5 gusting 13 24.4
2017-Feb-19 03:58 016 4 gusting 12 24.4
2017-Feb-19 03:48 023 3 gusting 12 25.6
2017-Feb-19 03:38 054 4 gusting 11 24.4
2017-Feb-19 03:28 050 4 gusting 12 24.4
2017-Feb-19 02:28 044 6 gusting 13 25.0
2017-Feb-19 02:18 042 7 gusting 14 25.0
2017-Feb-19 02:08 051 6 gusting 12 25.0
2017-Feb-19 01:48 050 6 gusting 11 25.6
2017-Feb-19 01:38 055 6 gusting 12 25.6
2017-Feb-19 01:28 021 3 gusting 11 25.0
2017-Feb-19 01:18 053 3 gusting 13 26.1
2017-Feb-19 01:08 046 8 gusting 14 25.6
2017-Feb-19 00:58 009 7 gusting 13 25.0
2017-Feb-19 00:48 029 6 gusting 13 24.4
2017-Feb-19 00:38 014 7 gusting 12 24.4
2017-Feb-19 00:28 039 1 gusting 6 23.3
2017-Feb-18 23:58 067 4 gusting 10 23.3
2017-Feb-18 23:48 057 4 gusting 10 23.9
2017-Feb-18 23:38 045 1 gusting 10 23.9
2017-Feb-18 23:18 053 1 gusting 11 22.2
2017-Feb-18 23:08 013 2 gusting 10 22.2
2017-Feb-18 22:58 044 1 gusting 6 22.2
2017-Feb-18 22:48 024 2 gusting 10 22.8
2017-Feb-18 22:38 076 3 gusting 6 22.2
2017-Feb-18 22:28 100 0 gusting 10 21.7
2017-Feb-18 22:08 059 2 gusting 8 21.7
2017-Feb-18 21:58 057 2 gusting 6 21.7
2017-Feb-18 21:48 048 2 gusting 6 22.2
2017-Feb-18 21:38 058 1 gusting 5 22.2
2017-Feb-18 21:28 057 0 gusting 6 22.2
2017-Feb-18 21:18 020 1 gusting 6 22.8
2017-Feb-18 20:58 021 0 gusting 6 23.3
2017-Feb-18 20:38 016 1 gusting 6 23.3
2017-Feb-18 20:28 073 0 gusting 5 22.8
2017-Feb-18 20:08 093 2 gusting 6 22.2
2017-Feb-18 19:58 086 0 gusting 4 21.1
2017-Feb-18 19:48 067 0 gusting 1 20.6
2017-Feb-18 19:38 045 20.6
2017-Feb-18 19:28 032 20.6
2017-Feb-18 19:18 038 20.6
2017-Feb-18 18:28 20.6
2017-Feb-18 18:08 059 20.0
2017-Feb-18 17:58 064 20.0
2017-Feb-18 17:38 060 20.0
2017-Feb-18 17:28 061 20.0
2017-Feb-18 17:18 061 20.0
2017-Feb-18 17:08 068 20.0
2017-Feb-18 16:58 096 0 gusting 2 20.0
2017-Feb-18 16:48 073 0 gusting 2 20.0
2017-Feb-18 16:28 083 20.0
2017-Feb-18 16:08 122 0 gusting 2 20.0
2017-Feb-18 15:58 083 20.0
2017-Feb-18 15:48 054 20.0
2017-Feb-18 15:18 096 20.0
2017-Feb-18 15:08 096 20.0
2017-Feb-18 14:58 052 0 gusting 1 20.0
2017-Feb-18 14:38 044 20.0
2017-Feb-18 14:28 038 0 gusting 4 20.0
2017-Feb-18 14:18 036 0 gusting 4 20.0
2017-Feb-18 13:58 036 20.0
2017-Feb-18 13:48 024 20.0
2017-Feb-18 13:38 063 0 gusting 4 20.0
2017-Feb-18 13:28 053 20.0
2017-Feb-18 13:18 048 20.0
2017-Feb-18 13:08 039 0 gusting 4 20.0
2017-Feb-18 12:58 032 0 gusting 4 20.0
2017-Feb-18 12:48 046 0 gusting 6 20.0
2017-Feb-18 12:38 059 0 gusting 6 20.0
2017-Feb-18 12:28 026 0 gusting 1 20.0
2017-Feb-18 12:18 340 20.0
2017-Feb-18 12:08 039 0 gusting 1 20.0
2017-Feb-18 11:58 047 20.0
2017-Feb-18 11:38 023 20.6
2017-Feb-18 11:18 057 0 gusting 2 20.6
2017-Feb-18 11:08 119 0 gusting 0 20.6
2017-Feb-18 10:48 070 20.0
2017-Feb-18 10:18 040 20.0
2017-Feb-18 10:08 058 0 gusting 6 20.0
2017-Feb-18 09:58 049 0 gusting 6 20.6
2017-Feb-18 09:48 062 0 gusting 5 20.6
2017-Feb-18 09:38 044 1 gusting 7 20.6
2017-Feb-18 09:28 061 1 gusting 11 20.6
2017-Feb-18 09:18 051 1 gusting 6 20.6
2017-Feb-18 08:58 055 1 gusting 6 20.0
2017-Feb-18 08:48 042 2 gusting 8 20.0
2017-Feb-18 08:38 074 1 gusting 6 20.0
2017-Feb-18 08:28 066 1 gusting 6 19.4
2017-Feb-18 08:18 076 1 gusting 7 19.4
2017-Feb-18 08:08 093 3 gusting 7 19.4
2017-Feb-18 07:58 036 1 gusting 10 20.0
2017-Feb-18 07:48 060 2 gusting 10 20.0
2017-Feb-18 07:38 062 3 gusting 10 20.0
2017-Feb-18 07:28 043 2 gusting 10 20.6
2017-Feb-18 07:18 025 21.1
2017-Feb-18 07:08 023 1 gusting 6 21.1
2017-Feb-18 06:58 347 0 gusting 5 21.7
2017-Feb-18 06:48 021 0 gusting 5 21.7
2017-Feb-18 06:38 22.2
2017-Feb-18 06:28 024 2 gusting 7 22.2
2017-Feb-18 06:08 029 1 gusting 10 22.8
2017-Feb-18 05:58 039 1 gusting 6 22.8
2017-Feb-18 05:38 033 0 gusting 8 23.3
2017-Feb-18 05:18 032 2 gusting 10 23.3
2017-Feb-18 04:48 056 5 gusting 11 23.9
2017-Feb-18 04:38 045 3 gusting 11 23.9
2017-Feb-18 04:28 007 0 gusting 13 23.9
2017-Feb-18 04:08 034 6 gusting 12 24.4
2017-Feb-18 03:58 051 6 gusting 10 24.4
2017-Feb-18 03:48 050 4 gusting 11 24.4
2017-Feb-18 03:38 054 4 gusting 10 25.0
2017-Feb-18 03:18 039 2 gusting 10 25.0
2017-Feb-18 03:08 010 5 gusting 10 25.0
2017-Feb-18 02:58 25.0
2017-Feb-18 02:38 033 4 gusting 10 25.0
2017-Feb-18 02:18 026 0 gusting 6 25.6
2017-Feb-18 02:08 020 5 gusting 7 25.0
2017-Feb-18 01:58 010 4 gusting 7 25.0
2017-Feb-18 01:38 056 2 gusting 7 24.4
2017-Feb-18 01:28 056 1 gusting 8 23.9
2017-Feb-18 01:08 023 1 gusting 6 24.4
2017-Feb-18 00:58 076 5 gusting 7 23.9
2017-Feb-18 00:48 074 4 gusting 6 23.9
2017-Feb-18 00:18 026 1 gusting 5 23.9
2017-Feb-18 00:08 015 0 gusting 6 24.4
2017-Feb-17 22:58 163 22.2
2017-Feb-17 22:38 086 0 gusting 2 22.2
2017-Feb-17 21:58 331 0 gusting 0 21.7
2017-Feb-17 20:58 190 21.7
2017-Feb-17 20:48 215 0 gusting 4 21.7
2017-Feb-17 20:38 209 0 gusting 4 21.1
2017-Feb-17 20:18 189 0 gusting 4 20.6
2017-Feb-17 19:58 150 0 gusting 6 20.0
2017-Feb-17 19:38 165 0 gusting 5 18.9
2017-Feb-17 19:28 189 0 gusting 5 18.9
2017-Feb-17 19:18 187 1 gusting 5 18.9
2017-Feb-17 19:08 143 2 gusting 4 18.9
2017-Feb-17 18:58 161 18.9
2017-Feb-17 18:48 191 18.3
2017-Feb-17 18:38 204 0 gusting 6 18.3
2017-Feb-17 18:28 193 0 gusting 4 18.3
2017-Feb-17 18:08 188 0 gusting 0 18.3
2017-Feb-17 17:48 198 18.3
2017-Feb-17 17:38 194 18.3
2017-Feb-17 17:28 211 18.3
2017-Feb-17 17:18 168 0 gusting 4 18.3
2017-Feb-17 17:08 195 0 gusting 1 18.3